�������l�o���
Date,Time,MP-1(��Sv/h),MP-2(��Sv/h),MP-3(��Sv/h),MP-4(��Sv/h),MP-5(��Sv/h),MP-6(��Sv/h),MP-7(��Sv/h),MP-8(��Sv/h),����,����(m/s),���J
2022/01/24,00:00,0.588,0.879,0.558,1.082,0.758,0.354,0.614,0.580,��쐼,2.0,��
2022/01/24,00:10,0.590,0.880,0.559,1.080,0.759,0.353,0.615,0.582,���쐼,1.2,��
2022/01/24,00:20,0.586,0.877,0.559,1.081,0.758,0.354,0.613,0.582,���k��,0.9,��
2022/01/24,00:30,0.587,0.879,0.559,1.081,0.759,0.353,0.616,0.582,�k�k��,2.3,��
2022/01/24,00:40,0.588,0.881,0.557,1.080,0.758,0.354,0.615,0.580,�k��,1.7,��
2022/01/24,00:50,0.588,0.879,0.559,1.080,0.759,0.353,0.613,0.582,�k�k��,1.7,��
2022/01/24,01:00,0.589,0.879,0.558,1.080,0.757,0.353,0.614,0.579,�k�k��,1.4,��
2022/01/24,01:10,0.587,0.880,0.558,1.082,0.758,0.354,0.614,0.581,�k��,3.2,��
2022/01/24,01:20,0.588,0.879,0.559,1.082,0.758,0.354,0.614,0.581,�k��,3.4,��
2022/01/24,01:30,0.589,0.879,0.560,1.083,0.759,0.353,0.614,0.582,���k��,2.6,��
2022/01/24,01:40,0.588,0.878,0.561,1.080,0.760,0.352,0.616,0.581,��,2.0,��
2022/01/24,01:50,0.587,0.879,0.560,1.080,0.759,0.354,0.614,0.583,���쐼,1.9,��
2022/01/24,02:00,0.587,0.878,0.560,1.080,0.758,0.354,0.614,0.580,��,2.3,��
2022/01/24,02:10,0.586,0.877,0.559,1.083,0.761,0.354,0.615,0.581,��,3.7,��
2022/01/24,02:20,0.589,0.878,0.560,1.081,0.757,0.353,0.613,0.582,���k��,5.6,��
2022/01/24,02:30,0.588,0.878,0.560,1.080,0.757,0.354,0.615,0.581,���k��,8.5,��
2022/01/24,02:40,0.586,0.879,0.557,1.082,0.756,0.353,0.615,0.582,��,7.3,��
2022/01/24,02:50,0.587,0.878,0.559,1.082,0.758,0.353,0.613,0.580,��,6.3,��
2022/01/24,03:00,0.587,0.880,0.559,1.081,0.756,0.353,0.615,0.581,���k��,4.5,��
2022/01/24,03:10,0.587,0.878,0.559,1.082,0.757,0.353,0.614,0.581,��,6.3,��
2022/01/24,03:20,0.586,0.879,0.558,1.081,0.758,0.352,0.615,0.581,��,6.1,��
2022/01/24,03:30,0.588,0.880,0.559,1.082,0.760,0.352,0.614,0.582,���k��,7.3,��
2022/01/24,03:40,0.587,0.877,0.559,1.081,0.757,0.352,0.615,0.580,���k��,8.3,��
2022/01/24,03:50,0.587,0.878,0.557,1.083,0.758,0.352,0.615,0.581,��,9.7,��
2022/01/24,04:00,0.586,0.877,0.559,1.082,0.757,0.352,0.616,0.581,���k��,8.4,��
2022/01/24,04:10,0.585,0.880,0.558,1.082,0.757,0.353,0.614,0.582,���k��,7.9,��
2022/01/24,04:20,0.587,0.879,0.560,1.081,0.758,0.354,0.614,0.581,���k��,8.2,��
2022/01/24,04:30,0.587,0.878,0.559,1.081,0.759,0.352,0.616,0.583,���k��,10.0,��
2022/01/24,04:40,0.588,0.877,0.559,1.080,0.759,0.351,0.616,0.581,�k��,9.9,��
2022/01/24,04:50,0.587,0.879,0.557,1.082,0.754,0.353,0.613,0.583,���k��,7.9,��
2022/01/24,05:00,0.586,0.880,0.557,1.083,0.757,0.354,0.614,0.583,���k��,6.1,��
2022/01/24,05:10,0.584,0.878,0.559,1.082,0.757,0.352,0.614,0.582,���k��,5.2,��
2022/01/24,05:20,0.586,0.878,0.559,1.082,0.757,0.353,0.616,0.583,��,4.3,��
2022/01/24,05:30,0.587,0.880,0.558,1.083,0.758,0.353,0.614,0.581,���쐼,4.0,��
2022/01/24,05:40,0.585,0.880,0.557,1.080,0.759,0.352,0.615,0.582,���쐼,4.3,��
2022/01/24,05:50,0.587,0.879,0.560,1.083,0.758,0.352,0.614,0.581,��,4.3,��
2022/01/24,06:00,0.586,0.878,0.557,1.081,0.758,0.352,0.614,0.582,��,4.7,��
2022/01/24,06:10,0.586,0.876,0.558,1.082,0.756,0.353,0.614,0.582,��,4.6,��
2022/01/24,06:20,0.586,0.878,0.558,1.082,0.757,0.353,0.615,0.581,��,4.8,��
2022/01/24,06:30,0.587,0.879,0.558,1.081,0.758,0.351,0.612,0.583,��,5.0,��
2022/01/24,06:40,0.585,0.879,0.559,1.083,0.757,0.352,0.613,0.582,��,5.6,��
2022/01/24,06:50,0.586,0.879,0.557,1.080,0.757,0.353,0.614,0.583,��,5.6,��
2022/01/24,07:00,0.587,0.880,0.557,1.080,0.756,0.351,0.615,0.584,��,5.7,��
2022/01/24,07:10,0.587,0.878,0.557,1.083,0.758,0.352,0.613,0.581,���k��,6.7,��
2022/01/24,07:20,0.589,0.880,0.556,1.078,0.756,0.351,0.614,0.583,���k��,4.2,��
2022/01/24,07:30,0.587,0.877,0.558,1.081,0.757,0.352,0.614,0.583,���k��,4.5,��
2022/01/24,07:40,0.585,0.876,0.558,1.081,0.758,0.352,0.613,0.582,�k��,5.6,��
2022/01/24,07:50,0.585,0.879,0.559,1.081,0.755,0.352,0.613,0.580,�k��,6.7,��
2022/01/24,08:00,0.588,0.878,0.559,1.083,0.756,0.351,0.615,0.581,�k��,5.2,��
2022/01/24,08:10,0.586,0.878,0.558,1.081,0.756,0.353,0.613,0.583,�k�k��,4.4,��
2022/01/24,08:20,0.585,0.875,0.558,1.080,0.755,0.352,0.614,0.583,�k�k��,6.0,��
2022/01/24,08:30,0.586,0.873,0.557,1.080,0.755,0.353,0.613,0.582,�k�k��,6.0,��
2022/01/24,08:40,0.585,0.873,0.556,1.079,0.757,0.352,0.615,0.581,�k��,6.5,��
2022/01/24,08:50,0.586,0.871,0.558,1.080,0.756,0.352,0.613,0.582,�k��,6.5,��
2022/01/24,09:00,0.588,0.871,0.558,1.081,0.757,0.352,0.613,0.582,�k�k��,7.0,��
2022/01/24,09:10,0.588,0.871,0.558,1.080,0.758,0.352,0.614,0.581,�k�k��,6.2,��
2022/01/24,09:20,0.586,0.873,0.559,1.083,0.756,0.352,0.616,0.583,�k�k��,6.6,��
2022/01/24,09:30,0.586,0.872,0.557,1.082,0.757,0.352,0.615,0.582,�k�k��,5.7,��
2022/01/24,09:40,0.588,0.872,0.559,1.079,0.757,0.353,0.615,0.581,�k�k��,7.6,��
2022/01/24,09:50,0.587,0.871,0.558,1.080,0.758,0.352,0.614,0.582,�k�k��,8.1,��
2022/01/24,10:00,0.586,0.870,0.557,1.082,0.755,0.352,0.612,0.580,�k�k��,8.4,��
2022/01/24,10:10,0.587,0.873,0.558,1.081,0.759,0.352,0.612,0.581,�k�k��,7.6,��
2022/01/24,10:20,0.587,0.873,0.558,1.080,0.757,0.353,0.612,0.582,�k�k��,6.7,��
2022/01/24,10:30,0.586,0.871,0.557,1.080,0.758,0.352,0.613,0.581,�k�k��,5.6,��
2022/01/24,10:40,0.587,0.871,0.557,1.080,0.758,0.352,0.614,0.583,�k�k��,8.1,��
2022/01/24,10:50,0.588,0.870,0.561,1.080,0.758,0.352,0.614,0.583,�k�k��,7.7,��
2022/01/24,11:00,0.584,0.872,0.557,1.085,0.759,0.353,0.613,0.581,�k��,9.0,��
2022/01/24,11:10,0.585,0.872,0.557,1.083,0.758,0.353,0.614,0.582,�k�k��,9.0,��
2022/01/24,11:20,0.585,0.871,0.557,1.082,0.758,0.353,0.613,0.582,�k�k��,8.3,��
2022/01/24,11:30,0.586,0.873,0.559,1.080,0.760,0.353,0.613,0.582,�k�k��,7.6,��
2022/01/24,11:40,0.588,0.872,0.559,1.082,0.759,0.352,0.613,0.583,�k�k��,7.8,��
2022/01/24,11:50,0.586,0.871,0.557,1.083,0.758,0.354,0.612,0.582,�k�k��,8.5,��
2022/01/24,12:00,0.587,0.872,0.557,1.084,0.757,0.353,0.614,0.582,�k�k��,8.4,��
2022/01/24,12:10,0.590,0.874,0.558,1.081,0.757,0.354,0.612,0.582,�k�k��,9.0,��
2022/01/24,12:20,0.588,0.873,0.557,1.083,0.758,0.353,0.613,0.584,�k�k��,8.4,��
2022/01/24,12:30,0.586,0.875,0.558,1.084,0.759,0.353,0.614,0.583,�k�k��,9.6,��
2022/01/24,12:40,0.586,0.872,0.558,1.083,0.757,0.352,0.613,0.583,�k��,9.2,��
2022/01/24,12:50,0.586,0.873,0.561,1.085,0.758,0.352,0.613,0.583,�k�k��,9.1,��
2022/01/24,13:00,0.586,0.874,0.559,1.083,0.758,0.353,0.613,0.583,�k�k��,10.2,��
2022/01/24,13:10,0.589,0.875,0.558,1.084,0.756,0.353,0.614,0.583,�k��,9.1,��
2022/01/24,13:20,0.588,0.875,0.559,1.084,0.757,0.353,0.613,0.583,�k��,11.4,��
2022/01/24,13:30,0.587,0.877,0.559,1.083,0.758,0.353,0.615,0.583,�k��,9.1,��
2022/01/24,13:40,0.586,0.878,0.559,1.082,0.758,0.353,0.615,0.581,�k��,9.2,��
2022/01/24,13:50,0.588,0.879,0.559,1.085,0.758,0.352,0.615,0.582,�k��,8.5,��
2022/01/24,14:00,0.589,0.878,0.559,1.084,0.758,0.353,0.615,0.582,�k��,8.4,��
2022/01/24,14:10,0.587,0.877,0.559,1.083,0.758,0.353,0.615,0.582,�k��,8.6,��
2022/01/24,14:20,0.588,0.877,0.557,1.083,0.758,0.353,0.617,0.582,�k�k��,9.5,��
2022/01/24,14:30,0.588,0.878,0.560,1.085,0.759,0.353,0.615,0.580,�k�k��,10.3,��
2022/01/24,14:40,0.588,0.878,0.557,1.084,0.759,0.352,0.616,0.580,�k�k��,10.2,��
2022/01/24,14:50,0.590,0.877,0.559,1.083,0.761,0.352,0.616,0.581,�k��,9.2,��
2022/01/24,15:00,0.587,0.879,0.559,1.084,0.758,0.351,0.615,0.583,�k��,9.6,��
2022/01/24,15:10,0.588,0.879,0.558,1.084,0.760,0.354,0.617,0.583,�k��,10.0,��
2022/01/24,15:20,0.589,0.880,0.559,1.083,0.762,0.352,0.613,0.584,�k��,9.2,��
2022/01/24,15:30,0.589,0.882,0.558,1.085,0.760,0.354,0.615,0.585,�k��,7.6,��
2022/01/24,15:40,0.589,0.881,0.558,1.084,0.760,0.352,0.617,0.584,�k��,6.5,��
2022/01/24,15:50,0.587,0.882,0.558,1.084,0.761,0.351,0.614,0.584,�k��,8.1,��
2022/01/24,16:00,0.588,0.881,0.558,1.087,0.759,0.353,0.616,0.582,�k��,9.0,��
2022/01/24,16:10,0.590,0.882,0.559,1.083,0.758,0.352,0.615,0.583,�k��,9.9,��
2022/01/24,16:20,0.589,0.882,0.557,1.085,0.760,0.352,0.615,0.583,�k��,8.6,��
2022/01/24,16:30,0.589,0.881,0.558,1.084,0.758,0.352,0.615,0.584,�k��,7.5,��
2022/01/24,16:40,0.589,0.880,0.558,1.085,0.759,0.352,0.616,0.582,�k��,9.0,��
2022/01/24,16:50,0.588,0.882,0.558,1.082,0.760,0.352,0.616,0.583,�k��,8.7,��
2022/01/24,17:00,0.589,0.880,0.558,1.083,0.757,0.352,0.615,0.583,�k��,7.8,��
2022/01/24,17:10,0.589,0.882,0.557,1.083,0.761,0.353,0.615,0.583,�k��,8.6,��
2022/01/24,17:20,0.588,0.878,0.556,1.084,0.759,0.350,0.614,0.582,�k�k��,5.9,��
2022/01/24,17:30,0.588,0.879,0.557,1.084,0.760,0.351,0.614,0.583,�k��,7.2,��
2022/01/24,17:40,0.588,0.883,0.556,1.083,0.759,0.351,0.615,0.583,�k��,5.4,��
2022/01/24,17:50,0.589,0.882,0.558,1.083,0.759,0.351,0.615,0.583,�k�k��,5.1,��
2022/01/24,18:00,0.587,0.881,0.560,1.083,0.759,0.352,0.614,0.584,�k�k��,6.2,��
2022/01/24,18:10,0.588,0.882,0.558,1.084,0.759,0.352,0.614,0.584,�k�k��,7.4,��
2022/01/24,18:20,0.588,0.882,0.557,1.084,0.761,0.351,0.614,0.584,�k�k��,8.5,��
2022/01/24,18:30,0.588,0.880,0.559,1.085,0.761,0.353,0.614,0.582,�k�k��,7.3,��
2022/01/24,18:40,0.589,0.882,0.559,1.084,0.760,0.352,0.614,0.584,�k�k��,5.4,��
2022/01/24,18:50,0.589,0.883,0.558,1.084,0.761,0.352,0.614,0.584,�k�k��,4.8,��
2022/01/24,19:00,0.589,0.882,0.558,1.082,0.761,0.352,0.614,0.584,�k�k��,5.8,��
2022/01/24,19:10,0.589,0.881,0.557,1.085,0.759,0.352,0.614,0.583,�k�k��,5.4,��
2022/01/24,19:20,0.588,0.881,0.559,1.083,0.759,0.352,0.614,0.582,�k�k��,6.2,��
2022/01/24,19:30,0.587,0.880,0.558,1.085,0.759,0.352,0.614,0.583,�k,6.7,��
2022/01/24,19:40,0.589,0.882,0.557,1.083,0.759,0.352,0.613,0.582,�k�k��,7.1,��
2022/01/24,19:50,0.589,0.879,0.558,1.085,0.760,0.353,0.616,0.583,�k,6.6,��
2022/01/24,20:00,0.588,0.883,0.556,1.082,0.760,0.350,0.613,0.584,�k,7.8,��
2022/01/24,20:10,0.589,0.882,0.557,1.084,0.759,0.351,0.614,0.583,�k,7.5,��
2022/01/24,20:20,0.588,0.880,0.557,1.084,0.759,0.351,0.613,0.582,�k,6.6,��
2022/01/24,20:30,0.588,0.883,0.558,1.086,0.760,0.350,0.614,0.582,�k,6.3,��
2022/01/24,20:40,0.587,0.882,0.558,1.087,0.758,0.353,0.614,0.582,�k,6.9,��
2022/01/24,20:50,0.588,0.883,0.558,1.085,0.757,0.352,0.614,0.583,�k�k��,7.5,��
2022/01/24,21:00,0.587,0.882,0.556,1.082,0.760,0.351,0.612,0.583,�k�k��,6.6,��
2022/01/24,21:10,0.586,0.881,0.558,1.082,0.758,0.352,0.612,0.583,�k�k��,5.1,��
2022/01/24,21:20,0.586,0.881,0.557,1.085,0.759,0.351,0.611,0.583,�k�k��,6.2,��
2022/01/24,21:30,0.586,0.879,0.558,1.083,0.758,0.352,0.611,0.582,�k��,6.6,��
2022/01/24,21:40,0.586,0.878,0.557,1.085,0.758,0.351,0.612,0.581,�k�k��,7.2,��
2022/01/24,21:50,0.587,0.879,0.557,1.082,0.760,0.351,0.613,0.581,�k�k��,7.4,��
2022/01/24,22:00,0.587,0.880,0.557,1.083,0.758,0.352,0.612,0.580,�k�k��,7.2,��
2022/01/24,22:10,0.587,0.881,0.557,1.083,0.758,0.352,0.611,0.581,�k�k��,5.3,��
2022/01/24,22:20,0.587,0.882,0.558,1.085,0.759,0.350,0.613,0.579,�k��,6.6,��
2022/01/24,22:30,0.586,0.880,0.557,1.085,0.759,0.351,0.612,0.582,�k��,6.7,��
2022/01/24,22:40,0.585,0.879,0.555,1.082,0.759,0.352,0.613,0.582,�k�k��,6.4,��
2022/01/24,22:50,0.587,0.880,0.557,1.083,0.760,0.351,0.611,0.581,�k�k��,5.4,��
2022/01/24,23:00,0.585,0.880,0.556,1.085,0.758,0.351,0.612,0.582,�k�k��,6.1,��
2022/01/24,23:10,0.586,0.879,0.558,1.084,0.757,0.351,0.613,0.582,�k�k��,7.8,��
2022/01/24,23:20,0.586,0.881,0.556,1.082,0.759,0.351,0.613,0.581,�k�k��,7.4,��
2022/01/24,23:30,0.586,0.879,0.558,1.083,0.760,0.351,0.613,0.582,�k��,8.5,��
2022/01/24,23:40,0.587,0.880,0.556,1.082,0.759,0.350,0.613,0.581,�k�k��,8.3,��
2022/01/24,23:50,0.588,0.880,0.557,1.082,0.756,0.351,0.612,0.581,�k�k��,8.0,��
